Theta_e
307 307 307 308 308 306 301 294 288 299 296 287 285 280 280 282 281 283 280 278 277 275 276 276 275 276 277 282 279 273 274 269 265 266 263 265 263 268 269 268 265 262 259 265
307 307 307 308 307 305 293 291 290 299 295 280 280 283 283 281 279 279 279 278 279 279 276 273 276 277 279 280 277 274 275 270 265 264 264 267 263 263 264 262 265 265 265 267
307 307 307 307 307 307 297 292 285 290 288 285 280 278 281 279 280 279 279 278 280 277 275 278 274 277 277 278 278 281 279 272 271 267 269 271 264 267 264 263 262 260 268 268
303 305 305 305 305 305 299 291 284 283 281 283 281 280 280 279 279 281 282 279 279 278 272 275 274 278 278 280 281 278 276 268 272 272 274 274 273 272 267 264 267 264 263 267
304 303 304 304 304 304 293 286 284 286 284 285 282 280 280 280 280 280 279 279 280 279 276 277 274 275 276 275 277 275 276 269 272 268 273 273 271 273 273 270 267 266 267 267
303 302 303 303 303 301 292 291 289 286 285 283 281 280 281 281 281 282 283 281 279 278 275 276 277 278 278 277 275 274 273 270 269 264 271 271 266 270 272 272 270 267 263 269
302 303 303 302 302 301 295 291 289 286 281 282 281 282 282 280 281 280 281 281 276 277 281 279 279 278 277 275 273 274 271 270 271 265 266 257 270 275 275 273 275 275 273 271
302 302 302 302 302 302 295 293 289 286 280 281 282 281 280 281 281 278 279 279 280 281 277 271 269 270 271 271 272 271 271 268 267 264 263 268 270 272 271 269 271 275 275 275
301 302 302 302 302 301 297 293 291 288 282 280 283 280 280 276 276 276 279 280 282 278 274 272 266 265 268 267 269 271 272 268 266 265 263 260 269 273 276 274 267 276 277 277
301 301 301 301 302 300 297 294 291 287 282 284 283 279 278 281 276 273 273 276 276 277 271 268 267 263 269 264 263 265 268 268 262 265 264 267 272 273 276 265 267 274 276 277
301 301 301 301 300 299 296 293 291 288 284 284 284 283 277 277 275 269 275 272 272 271 264 266 265 263 263 264 269 268 267 263 263 265 262 260 275 271 267 271 274 275 276 276
300 301 300 301 299 298 298 290 290 289 285 282 285 283 283 280 278 273 275 274 273 271 266 266 267 266 264 262 259 272 266 265 261 264 266 273 275 274 272 276 274 275 276 275
300 300 300 299 298 297 297 289 287 287 284 284 282 279 282 282 281 281 274 274 276 275 273 268 266 262 270 265 266 266 271 268 267 264 267 270 272 273 276 276 276 276 277 276
300 301 300 298 297 295 293 286 288 287 284 279 278 283 278 281 280 279 279 275 275 271 275 267 265 265 269 263 265 265 270 269 265 264 266 272 271 274 275 276 278 276 274 274
300 300 298 296 295 293 290 287 288 287 282 277 277 282 279 280 280 278 277 276 269 275 267 264 265 268 265 265 265 266 269 271 269 268 273 272 272 275 278 276 276 278 277 273
300 299 297 295 294 294 290 283 286 287 285 279 273 280 278 278 278 276 274 273 275 274 265 266 265 263 264 261 262 271 272 274 276 274 276 276 276 277 278 276 277 278 277 278
300 299 296 294 293 287 282 280 283 288 286 278 273 274 277 277 276 274 272 271 270 268 270 266 265 266 268 262 262 267 269 271 274 274 275 273 271 274 277 277 278 278 277 276
300 298 294 293 292 290 284 286 287 287 280 279 268 271 274 276 272 269 272 269 269 269 266 267 266 268 267 262 267 265 267 273 271 270 273 275 276 275 275 277 276 275 275 276
299 297 293 290 285 282 282 291 289 282 279 271 272 267 266 276 273 272 271 270 266 268 265 267 268 268 264 266 264 266 273 274 274 275 275 275 269 270 272 273 273 273 273 274
297 291 284 281 284 291 288 281 277 276 276 275 271 273 268 271 271 271 267 269 267 260 267 269 265 265 269 270 272 274 276 276 273 271 270 272 272 272 272 271 273 273 273 274
290 284 283 286 290 281 278 272 271 272 268 272 272 271 268 273 266 267 267 263 267 261 265 264 265 263 267 271 274 276 274 274 272 272 272 272 272 271 271 271 272 273 273 272
289 288 287 283 279 275 269 268 271 268 268 272 269 270 270 270 272 266 267 263 265 259 266 262 260 267 270 272 273 273 271 271 271 271 271 271 271 271 271 271 271 272 272 272
283 280 276 274 272 264 264 264 267 268 270 271 270 268 271 269 270 268 265 260 260 265 260 261 264 268 271 272 273 271 271 270 270 270 270 271 271 272 270 270 271 270 270 270
278 273 267 269 268 269 272 273 273 275 274 272 270 269 269 272 269 268 262 264 262 257 258 260 266 269 269 272 271 269 268 269 268 268 269 269 270 269 270 270 270 269 268 269
280 276 269 271 275 275 275 272 272 275 274 271 268 269 271 270 267 268 265 261 260 263 262 266 272 272 270 269 268 266 267 266 266 267 267 267 268 268 268 269 269 268 268 269
280 278 274 275 272 274 274 273 273 274 272 272 271 266 265 262 264 262 261 261 262 266 269 273 274 271 268 264 266 267 266 264 264 266 266 267 266 266 267 267 268 267 268 267
277 275 278 277 276 275 277 277 275 275 272 267 266 261 263 264 258 258 266 264 269 272 274 274 273 265 265 262 265 266 265 265 264 265 265 267 266 264 266 266 267 268 268 267
Wind_Speed
25 26 27 29 29 28 6 3 2 3 2 3 3 3 4 2 3 1 2 2 4 4 6 7 6 4 3 4 6 2 2 1 4 5 2 1 1 0 4 3 2 2 2 10
25 27 30 32 31 22 6 4 2 3 4 4 4 5 2 1 3 4 4 4 2 4 4 6 7 3 2 6 1 3 2 3 4 3 4 2 2 4 2 4 2 6 3 6
25 27 29 33 34 30 3 4 5 4 3 2 2 5 4 5 2 1 2 5 4 4 5 7 7 5 2 2 2 2 1 4 8 10 6 2 4 6 6 6 4 5 11 9
28 29 29 31 35 34 5 5 2 2 5 4 6 2 3 6 8 1 5 4 2 11 5 12 15 9 17 8 9 5 4 6 10 14 15 15 15 14 11 13 16 9 3 10
27 27 27 28 31 33 5 5 5 5 5 4 8 3 6 8 8 9 9 7 12 12 8 10 12 9 7 7 3 1 5 6 7 8 12 16 20 17 20 17 15 15 13 23
26 26 24 25 27 21 5 5 1 2 7 6 5 5 9 12 14 7 8 15 10 10 5 11 16 17 18 13 12 11 3 2 2 4 7 12 7 7 6 9 8 9 8 12
25 24 24 24 23 18 5 3 4 3 4 6 8 9 11 14 13 6 11 7 6 4 14 16 15 19 17 10 4 5 5 4 2 3 4 4 3 15 9 14 9 7 6 3
24 24 23 22 22 18 3 2 2 3 5 7 6 11 11 11 10 8 6 7 5 9 10 5 7 6 4 4 3 4 0 3 3 2 3 10 10 12 10 9 5 17 14 6
24 24 23 21 18 20 3 0 3 1 4 4 5 8 9 4 6 7 2 5 7 6 3 4 6 6 4 4 2 2 4 3 1 2 4 3 3 15 13 7 3 9 9 8
24 24 24 24 18 18 8 2 2 1 2 1 5 5 5 4 4 3 4 7 7 5 6 6 5 4 6 6 7 10 6 2 3 6 4 3 12 19 16 6 7 22 12 7
23 25 25 24 21 23 8 3 3 2 1 2 4 3 2 3 3 2 6 4 5 4 6 4 4 3 4 3 6 7 5 3 4 4 3 2 14 6 8 8 19 20 19 13
24 25 27 23 25 20 13 1 2 1 1 2 2 1 2 2 1 1 4 2 5 3 3 4 4 5 3 3 4 2 2 2 3 1 7 17 10 14 4 14 18 20 16 7
23 25 27 25 21 17 9 3 2 0 0 1 1 1 4 2 1 1 1 2 1 2 1 2 3 2 2 3 2 4 2 2 2 6 6 7 17 8 10 15 18 16 18 15
24 25 26 24 12 12 10 4 3 2 1 2 1 2 3 6 2 3 3 3 1 2 2 2 2 2 4 3 3 1 3 5 5 7 7 16 4 11 13 17 17 15 11 12
24 24 22 17 7 10 8 4 3 3 2 2 1 2 3 4 2 2 2 4 1 0 1 0 1 2 4 4 2 3 1 5 6 12 12 12 15 18 16 16 16 15 14 8
23 23 17 9 10 6 3 2 1 4 3 1 2 3 4 4 5 7 6 3 2 1 1 1 2 3 3 1 2 5 3 7 10 10 12 13 15 12 12 16 15 15 14 13
22 22 11 4 9 4 3 2 3 5 0 1 3 2 2 3 5 2 2 1 1 2 0 1 0 2 2 2 3 7 6 8 14 11 12 12 4 13 15 14 15 15 12 10
21 19 5 1 5 8 2 2 3 4 1 0 1 4 2 2 2 1 1 1 1 1 1 0 2 0 3 5 9 6 6 13 10 9 8 12 13 10 11 10 13 15 11 11
19 14 1 2 1 2 1 7 4 0 1 0 1 1 4 0 3 2 1 1 2 1 1 2 1 3 6 8 5 4 11 13 17 18 18 13 5 8 8 10 12 13 13 12
14 2 1 1 1 8 8 1 1 1 0 1 2 1 3 3 3 3 3 1 1 2 1 1 2 5 5 4 4 8 13 11 15 19 19 18 15 13 9 12 12 11 12 12
3 3 2 1 6 2 0 1 2 1 2 2 3 2 1 3 1 2 2 2 2 2 2 1 3 4 3 2 6 5 8 13 13 13 15 15 15 15 14 13 13 12 11 11
4 4 3 2 1 2 2 1 1 1 4 2 2 2 3 1 1 1 1 2 2 4 2 1 4 4 3 4 4 8 10 12 13 14 14 15 15 14 13 13 13 11 11 11
1 1 1 2 2 4 3 2 3 2 2 3 1 2 3 1 0 1 1 2 5 1 1 4 5 3 3 3 5 9 10 11 13 14 14 15 15 13 13 12 12 12 11 10
3 4 6 3 3 4 2 1 0 1 1 1 1 1 2 1 1 1 2 4 3 3 3 6 3 2 2 6 7 9 11 12 13 14 14 14 14 13 13 11 10 10 11 12
2 2 5 5 3 3 2 0 2 2 1 2 1 2 2 0 1 2 2 3 4 5 5 2 4 3 4 7 8 7 8 9 10 12 12 13 13 13 12 10 8 10 9 10
2 4 4 3 1 3 1 2 3 2 2 1 2 2 0 4 2 1 6 2 5 4 1 3 3 5 4 4 6 7 8 8 8 10 11 11 11 12 11 9 7 8 9 9
4 5 4 5 5 6 2 2 2 3 2 2 3 2 9 1 1 4 4 5 3 0 3 3 4 3 3 3 5 7 8 8 9 9 10 10 8 7 9 11 10 7 6 6
Wind_Direction
16 6 1 357 354 346 348 291 352 314 115 38 37 17 332 0 340 141 305 294 273 279 337 294 277 253 74 87 144 238 156 186 267 221 293 19 49 101 176 214 216 223 150 277
16 11 3 358 357 7 313 335 269 15 355 47 359 352 289 260 333 344 341 291 222 330 289 306 293 349 58 98 73 333 156 253 307 320 3 352 222 207 233 76 9 206 206 264
17 12 8 1 354 352 325 330 353 351 63 143 10 10 352 342 190 283 337 280 307 298 277 252 279 286 108 94 215 234 71 241 222 248 266 126 184 189 191 155 191 227 224 268
19 16 10 5 355 348 343 17 56 100 314 351 337 182 291 328 4 321 296 285 258 341 294 310 277 322 327 313 247 213 217 242 239 261 280 288 283 276 188 205 217 229 268 285
19 17 15 11 4 344 68 12 357 341 286 303 334 38 25 349 355 331 300 298 330 325 286 302 318 319 308 263 304 103 220 261 306 299 286 266 266 266 256 222 224 256 272 280
17 14 12 14 15 4 26 358 49 301 290 339 351 15 345 332 343 299 19 332 328 326 349 308 289 279 269 269 288 277 249 242 249 258 320 330 317 268 293 264 192 176 195 241
13 11 11 11 14 18 350 11 303 308 308 327 352 345 351 331 328 307 319 343 357 342 305 293 272 263 259 236 311 300 259 294 261 296 314 237 105 19 10 346 17 328 255 164
8 6 4 7 7 9 341 19 16 327 291 320 343 3 325 332 347 335 47 8 289 312 301 303 312 307 51 75 65 347 268 152 289 276 284 298 16 17 350 339 338 7 352 62
5 1 358 354 1 356 333 236 150 295 309 44 18 327 7 349 348 350 55 340 322 344 289 316 322 10 313 350 22 140 106 74 86 294 260 302 22 346 318 296 217 16 15 2
1 358 356 351 358 352 338 263 157 161 274 162 17 22 337 343 321 305 18 345 337 358 328 328 355 327 356 356 330 337 312 114 209 265 274 276 1 353 343 3 337 327 316 285
353 353 351 347 352 342 341 289 142 146 275 355 66 26 296 319 354 17 319 1 349 354 4 1 347 344 312 344 337 337 12 311 356 324 282 309 359 350 3 299 300 302 293 280
347 348 349 354 349 351 348 95 44 46 251 27 50 28 73 74 60 109 322 135 28 322 17 7 329 308 319 310 306 359 15 147 217 111 284 301 343 321 280 321 301 308 281 275
345 348 349 351 354 354 18 82 47 52 317 170 243 180 144 173 121 91 94 45 20 20 119 267 267 295 349 333 16 302 333 36 248 353 312 323 315 304 325 322 309 298 285 274
342 347 353 351 19 27 54 64 343 335 322 305 177 117 110 116 133 75 63 128 91 172 258 233 246 320 57 309 252 339 270 314 288 253 299 312 300 320 320 320 322 317 270 266
340 347 356 354 30 85 84 87 57 54 345 343 326 116 119 138 148 136 120 87 64 336 311 279 278 30 29 285 48 255 303 313 320 312 310 303 311 319 318 321 321 324 333 293
337 345 355 352 3 215 246 158 66 33 12 315 332 154 150 146 106 87 68 103 84 20 82 301 296 199 118 296 263 240 248 292 294 294 297 286 289 300 314 311 317 325 332 324
337 343 349 359 8 26 35 47 319 356 190 310 323 303 147 149 153 163 115 174 179 129 200 242 222 267 129 274 237 243 276 287 302 288 295 294 265 307 311 312 311 315 309 313
335 340 326 336 97 132 113 10 347 344 263 76 24 285 329 348 260 52 224 186 181 221 217 294 221 339 195 256 246 273 285 298 292 282 277 281 283 293 303 310 320 322 321 323
331 339 256 279 337 351 324 314 303 121 96 67 6 179 277 330 275 96 69 126 279 174 236 178 95 226 229 229 236 293 301 303 307 316 302 283 262 287 302 322 325 323 326 331
332 338 237 229 40 310 317 225 232 208 322 42 240 63 268 72 359 300 13 155 291 323 201 85 209 258 273 254 255 275 306 354 350 330 334 338 328 319 330 328 328 322 320 326
10 344 293 349 289 291 263 298 58 354 332 170 239 151 249 12 93 307 93 288 294 291 248 145 269 273 269 272 275 348 359 337 340 333 333 340 337 335 335 330 327 323 323 328
309 294 337 322 321 304 47 263 338 164 239 240 169 200 192 112 46 8 307 282 68 258 300 337 268 250 238 285 7 343 342 338 337 342 338 340 337 339 332 330 327 326 329 324
102 69 320 45 275 6 165 232 291 299 207 229 199 313 155 77 188 255 9 261 232 78 12 238 231 246 314 18 343 342 342 340 343 341 341 336 335 335 340 331 335 331 326 323
46 22 319 158 266 248 238 269 319 294 44 90 68 264 134 70 226 139 260 247 51 325 253 241 234 302 31 359 349 346 340 346 340 339 339 337 336 342 337 334 334 337 335 331
274 109 248 230 244 255 246 161 330 240 96 108 51 61 28 242 296 216 308 301 253 222 239 266 340 61 11 356 350 333 343 341 335 335 339 334 347 341 334 340 350 343 343 348
247 231 260 226 335 262 167 201 255 158 117 75 66 103 95 259 202 229 228 252 238 261 341 313 27 11 15 339 329 338 345 334 330 335 333 328 346 338 332 334 348 349 355 358
234 245 229 257 280 257 237 197 213 135 111 220 109 149 224 89 315 253 216 219 234 156 328 24 23 64 340 324 334 344 337 334 337 334 333 330 336 326 346 349 353 350 1 2